Time,TemperatureF,DewpointF,PressureIn,WindDirection,WindDirectionDegrees,WindSpeedMPH,WindSpeedGustMPH,Humidity,HourlyPrecipIn,Conditions,Clouds,dailyrainin,SoftwareType,DateUTC
2013-05-25 00:00:00,59.0,41.0,-100.00,SSW,193,2.0,-999.0,52,0.00,,,-99.99,,2013-05-25 07:00:00,
2013-05-25 00:22:00,59.0,41.0,-100.00,SSW,193,2.0,-999.0,52,0.00,,,-99.99,,2013-05-25 07:22:00,
2013-05-25 00:32:00,59.0,41.0,-100.00,SSW,193,2.0,-999.0,52,0.00,,,-99.99,,2013-05-25 07:32:00,
2013-05-25 00:42:00,59.0,41.0,-100.00,SSW,193,2.0,-999.0,52,0.00,,,-99.99,,2013-05-25 07:42:00,
2013-05-25 00:52:00,59.0,41.0,-100.00,SSW,193,2.0,-999.0,52,0.00,,,-99.99,,2013-05-25 07:52:00,
2013-05-25 01:00:00,58.0,40.0,-100.00,South,181,3.0,-999.0,51,0.00,,,-99.99,,2013-05-25 08:00:00,
2013-05-25 01:23:00,58.0,40.0,-100.00,South,181,3.0,-999.0,51,0.00,,,-99.99,,2013-05-25 08:23:00,
2013-05-25 01:32:00,58.0,40.0,-100.00,South,181,3.0,-999.0,51,0.00,,,-99.99,,2013-05-25 08:32:00,
2013-05-25 01:42:00,58.0,40.0,-100.00,South,181,3.0,-999.0,51,0.00,,,-99.99,,2013-05-25 08:42:00,
2013-05-25 01:52:00,58.0,40.0,-100.00,South,181,3.0,-999.0,51,0.00,,,-99.99,,2013-05-25 08:52:00,
2013-05-25 02:00:00,55.0,37.0,-100.00,SE,144,4.0,-999.0,51,0.00,,,-99.99,,2013-05-25 09:00:00,
2013-05-25 02:21:00,55.0,37.0,-100.00,SE,144,4.0,-999.0,51,0.00,,,-99.99,,2013-05-25 09:21:00,
2013-05-25 02:33:00,55.0,37.0,-100.00,SE,144,4.0,-999.0,51,0.00,,,-99.99,,2013-05-25 09:33:00,
2013-05-25 02:43:00,55.0,37.0,-100.00,SE,144,4.0,-999.0,51,0.00,,,-99.99,,2013-05-25 09:43:00,
2013-05-25 02:53:00,55.0,37.0,-100.00,SE,144,4.0,-999.0,51,0.00,,,-99.99,,2013-05-25 09:53:00,
2013-05-25 03:00:00,54.0,38.0,-100.00,East,101,3.0,-999.0,55,0.00,,,-99.99,,2013-05-25 10:00:00,
2013-05-25 03:23:00,54.0,38.0,-100.00,East,101,3.0,-999.0,55,0.00,,,-99.99,,2013-05-25 10:23:00,
2013-05-25 03:33:00,54.0,38.0,-100.00,East,101,3.0,-999.0,55,0.00,,,-99.99,,2013-05-25 10:33:00,
2013-05-25 03:42:00,54.0,38.0,-100.00,East,101,3.0,-999.0,55,0.00,,,-99.99,,2013-05-25 10:42:00,
2013-05-25 03:52:00,54.0,38.0,-100.00,East,101,3.0,-999.0,55,0.00,,,-99.99,,2013-05-25 10:52:00,
2013-05-25 04:00:00,52.0,34.0,-100.00,South,181,2.0,-999.0,50,0.00,,,-99.99,,2013-05-25 11:00:00,
2013-05-25 04:22:00,52.0,34.0,-100.00,South,181,2.0,-999.0,50,0.00,,,-99.99,,2013-05-25 11:22:00,
2013-05-25 04:32:00,52.0,34.0,-100.00,South,181,2.0,-999.0,50,0.00,,,-99.99,,2013-05-25 11:32:00,
2013-05-25 04:42:00,52.0,34.0,-100.00,South,181,2.0,-999.0,50,0.00,,,-99.99,,2013-05-25 11:42:00,
2013-05-25 04:52:00,52.0,34.0,-100.00,South,181,2.0,-999.0,50,0.00,,,-99.99,,2013-05-25 11:52:00,
2013-05-25 05:00:00,51.0,37.0,-100.00,SSE,147,3.0,-999.0,59,0.00,,,-99.99,,2013-05-25 12:00:00,
2013-05-25 05:22:00,51.0,37.0,-100.00,SSE,147,3.0,-999.0,59,0.00,,,-99.99,,2013-05-25 12:22:00,
2013-05-25 05:32:00,51.0,37.0,-100.00,SSE,147,3.0,-999.0,59,0.00,,,-99.99,,2013-05-25 12:32:00,
2013-05-25 05:42:00,51.0,37.0,-100.00,SSE,147,3.0,-999.0,59,0.00,,,-99.99,,2013-05-25 12:42:00,
2013-05-25 05:52:00,51.0,37.0,-100.00,SSE,147,3.0,-999.0,59,0.00,,,-99.99,,2013-05-25 12:52:00,
2013-05-25 06:00:00,50.0,36.0,-100.00,South,178,5.0,-999.0,60,0.00,,,-99.99,,2013-05-25 13:00:00,
2013-05-25 06:22:00,50.0,36.0,-100.00,South,178,5.0,-999.0,60,0.00,,,-99.99,,2013-05-25 13:22:00,
2013-05-25 06:32:00,50.0,36.0,-100.00,South,178,5.0,-999.0,60,0.00,,,-99.99,,2013-05-25 13:32:00,
2013-05-25 06:42:00,50.0,36.0,-100.00,South,178,5.0,-999.0,60,0.00,,,-99.99,,2013-05-25 13:42:00,
2013-05-25 06:52:00,50.0,36.0,-100.00,South,178,5.0,-999.0,60,0.00,,,-99.99,,2013-05-25 13:52:00,
2013-05-25 07:00:00,50.0,37.0,-100.00,South,185,3.0,-999.0,59,0.00,,,-99.99,,2013-05-25 14:00:00,
2013-05-25 07:22:00,50.0,37.0,-100.00,South,185,3.0,-999.0,59,0.00,,,-99.99,,2013-05-25 14:22:00,
2013-05-25 07:32:00,50.0,37.0,-100.00,South,185,3.0,-999.0,59,0.00,,,-99.99,,2013-05-25 14:32:00,
2013-05-25 07:42:00,50.0,37.0,-100.00,South,185,3.0,-999.0,59,0.00,,,-99.99,,2013-05-25 14:42:00,
2013-05-25 07:52:00,50.0,37.0,-100.00,South,185,3.0,-999.0,59,0.00,,,-99.99,,2013-05-25 14:52:00,
2013-05-25 08:00:00,57.0,36.0,-100.00,South,174,6.0,-999.0,46,0.00,,,-99.99,,2013-05-25 15:00:00,
2013-05-25 08:22:00,57.0,36.0,-100.00,South,174,6.0,-999.0,46,0.00,,,-99.99,,2013-05-25 15:22:00,
2013-05-25 08:33:00,57.0,36.0,-100.00,South,174,6.0,-999.0,46,0.00,,,-99.99,,2013-05-25 15:33:00,
2013-05-25 08:43:00,57.0,36.0,-100.00,South,174,6.0,-999.0,46,0.00,,,-99.99,,2013-05-25 15:43:00,
2013-05-25 08:53:00,57.0,36.0,-100.00,South,174,6.0,-999.0,46,0.00,,,-99.99,,2013-05-25 15:53:00,
2013-05-25 09:00:00,61.0,37.0,-100.00,SW,236,5.0,-999.0,41,0.00,,,-99.99,,2013-05-25 16:00:00,
2013-05-25 09:23:00,61.0,37.0,-100.00,SW,236,5.0,-999.0,41,0.00,,,-99.99,,2013-05-25 16:23:00,
2013-05-25 09:33:00,61.0,37.0,-100.00,SW,236,5.0,-999.0,41,0.00,,,-99.99,,2013-05-25 16:33:00,
2013-05-25 09:42:00,61.0,37.0,-100.00,SW,236,5.0,-999.0,41,0.00,,,-99.99,,2013-05-25 16:42:00,
2013-05-25 09:52:00,61.0,37.0,-100.00,SW,236,5.0,-999.0,41,0.00,,,-99.99,,2013-05-25 16:52:00,
2013-05-25 10:00:00,65.0,37.0,-100.00,WSW,241,5.0,-999.0,36,0.00,,,-99.99,,2013-05-25 17:00:00,
2013-05-25 10:22:00,65.0,37.0,-100.00,WSW,241,5.0,-999.0,36,0.00,,,-99.99,,2013-05-25 17:22:00,
2013-05-25 10:33:00,65.0,37.0,-100.00,WSW,241,5.0,-999.0,36,0.00,,,-99.99,,2013-05-25 17:33:00,
2013-05-25 10:42:00,65.0,37.0,-100.00,WSW,241,5.0,-999.0,36,0.00,,,-99.99,,2013-05-25 17:42:00,
2013-05-25 10:52:00,65.0,37.0,-100.00,WSW,241,5.0,-999.0,36,0.00,,,-99.99,,2013-05-25 17:52:00,
2013-05-25 11:00:00,68.0,38.0,-100.00,NNW,334,3.0,-999.0,32,0.00,,,-99.99,,2013-05-25 18:00:00,
2013-05-25 11:22:00,68.0,38.0,-100.00,NNW,334,3.0,-999.0,32,0.00,,,-99.99,,2013-05-25 18:22:00,
2013-05-25 11:32:00,68.0,38.0,-100.00,NNW,334,3.0,-999.0,32,0.00,,,-99.99,,2013-05-25 18:32:00,
2013-05-25 11:42:00,68.0,38.0,-100.00,NNW,334,3.0,-999.0,32,0.00,,,-99.99,,2013-05-25 18:42:00,
2013-05-25 11:52:00,68.0,38.0,-100.00,NNW,334,3.0,-999.0,32,0.00,,,-99.99,,2013-05-25 18:52:00,
2013-05-25 12:00:00,72.0,36.0,-100.00,NW,307,5.0,-999.0,27,0.00,,,-99.99,,2013-05-25 19:00:00,
2013-05-25 12:32:00,72.0,36.0,-100.00,NW,307,5.0,-999.0,27,0.00,,,-99.99,,2013-05-25 19:32:00,
2013-05-25 12:42:00,72.0,36.0,-100.00,NW,307,5.0,-999.0,27,0.00,,,-99.99,,2013-05-25 19:42:00,
2013-05-25 12:52:00,72.0,36.0,-100.00,NW,307,5.0,-999.0,27,0.00,,,-99.99,,2013-05-25 19:52:00,
2013-05-25 13:00:00,75.0,36.0,-100.00,West,263,9.0,-999.0,23,0.00,,,-99.99,,2013-05-25 20:00:00,
2013-05-25 13:22:00,75.0,36.0,-100.00,West,263,9.0,-999.0,23,0.00,,,-99.99,,2013-05-25 20:22:00,
2013-05-25 13:32:00,75.0,36.0,-100.00,West,263,9.0,-999.0,23,0.00,,,-99.99,,2013-05-25 20:32:00,
2013-05-25 13:42:00,75.0,36.0,-100.00,West,263,9.0,-999.0,23,0.00,,,-99.99,,2013-05-25 20:42:00,
2013-05-25 13:52:00,75.0,36.0,-100.00,West,263,9.0,-999.0,23,0.00,,,-99.99,,2013-05-25 20:52:00,
2013-05-25 14:00:00,78.0,33.0,-100.00,WNW,290,13.0,-999.0,19,0.00,,,-99.99,,2013-05-25 21:00:00,
2013-05-25 14:22:00,78.0,33.0,-100.00,WNW,290,13.0,-999.0,19,0.00,,,-99.99,,2013-05-25 21:22:00,
2013-05-25 14:33:00,78.0,33.0,-100.00,WNW,290,13.0,-999.0,19,0.00,,,-99.99,,2013-05-25 21:33:00,
2013-05-25 14:43:00,78.0,33.0,-100.00,WNW,290,13.0,-999.0,19,0.00,,,-99.99,,2013-05-25 21:43:00,
2013-05-25 14:53:00,78.0,33.0,-100.00,WNW,290,13.0,-999.0,19,0.00,,,-99.99,,2013-05-25 21:53:00,
2013-05-25 15:00:00,80.0,32.0,-100.00,NW,307,4.0,-999.0,17,0.00,,,-99.99,,2013-05-25 22:00:00,
2013-05-25 15:23:00,80.0,32.0,-100.00,NW,307,4.0,-999.0,17,0.00,,,-99.99,,2013-05-25 22:23:00,
2013-05-25 15:33:00,80.0,32.0,-100.00,NW,307,4.0,-999.0,17,0.00,,,-99.99,,2013-05-25 22:33:00,
2013-05-25 15:42:00,80.0,32.0,-100.00,NW,307,4.0,-999.0,17,0.00,,,-99.99,,2013-05-25 22:42:00,
2013-05-25 15:52:00,80.0,32.0,-100.00,NW,307,4.0,-999.0,17,0.00,,,-99.99,,2013-05-25 22:52:00,
2013-05-25 16:00:00,81.0,32.0,-100.00,NW,320,13.0,-999.0,17,0.00,,,-99.99,,2013-05-25 23:00:00,
2013-05-25 16:22:00,81.0,32.0,-100.00,NW,320,13.0,-999.0,17,0.00,,,-99.99,,2013-05-25 23:22:00,
2013-05-25 16:32:00,81.0,32.0,-100.00,NW,320,13.0,-999.0,17,0.00,,,-99.99,,2013-05-25 23:32:00,
2013-05-25 16:42:00,81.0,32.0,-100.00,NW,320,13.0,-999.0,17,0.00,,,-99.99,,2013-05-25 23:42:00,
2013-05-25 16:52:00,81.0,32.0,-100.00,NW,320,13.0,-999.0,17,0.00,,,-99.99,,2013-05-25 23:52:00,
2013-05-25 17:00:00,82.0,32.0,-100.00,NW,315,5.0,-999.0,16,0.00,,,-99.99,,2013-05-26 00:00:00,
2013-05-25 17:22:00,82.0,32.0,-100.00,NW,315,5.0,-999.0,16,0.00,,,-99.99,,2013-05-26 00:22:00,
2013-05-25 17:32:00,82.0,32.0,-100.00,NW,315,5.0,-999.0,16,0.00,,,-99.99,,2013-05-26 00:32:00,
2013-05-25 17:43:00,82.0,32.0,-100.00,NW,315,5.0,-999.0,16,0.00,,,-99.99,,2013-05-26 00:43:00,
2013-05-25 17:52:00,82.0,32.0,-100.00,NW,315,5.0,-999.0,16,0.00,,,-99.99,,2013-05-26 00:52:00,
2013-05-25 18:00:00,82.0,31.0,-100.00,NNW,336,5.0,-999.0,16,0.00,,,-99.99,,2013-05-26 01:00:00,
2013-05-25 18:21:00,82.0,31.0,-100.00,NNW,336,5.0,-999.0,16,0.00,,,-99.99,,2013-05-26 01:21:00,
2013-05-25 18:32:00,82.0,31.0,-100.00,NNW,336,5.0,-999.0,16,0.00,,,-99.99,,2013-05-26 01:32:00,
2013-05-25 18:42:00,82.0,31.0,-100.00,NNW,336,5.0,-999.0,16,0.00,,,-99.99,,2013-05-26 01:42:00,
2013-05-25 18:52:00,82.0,31.0,-100.00,NNW,336,5.0,-999.0,16,0.00,,,-99.99,,2013-05-26 01:52:00,
2013-05-25 19:00:00,81.0,32.0,-100.00,NNW,331,8.0,-999.0,16,0.00,,,-99.99,,2013-05-26 02:00:00,
2013-05-25 19:21:00,81.0,32.0,-100.00,NNW,331,8.0,-999.0,16,0.00,,,-99.99,,2013-05-26 02:21:00,
2013-05-25 19:32:00,81.0,32.0,-100.00,NNW,331,8.0,-999.0,16,0.00,,,-99.99,,2013-05-26 02:32:00,
2013-05-25 19:42:00,81.0,32.0,-100.00,NNW,331,8.0,-999.0,16,0.00,,,-99.99,,2013-05-26 02:42:00,
2013-05-25 19:52:00,81.0,32.0,-100.00,NNW,331,8.0,-999.0,16,0.00,,,-99.99,,2013-05-26 02:52:00,
2013-05-25 20:00:00,79.0,34.0,-100.00,NW,323,6.0,-999.0,19,0.00,,,-99.99,,2013-05-26 03:00:00,
2013-05-25 20:22:00,79.0,34.0,-100.00,NW,323,6.0,-999.0,19,0.00,,,-99.99,,2013-05-26 03:22:00,
2013-05-25 20:33:00,79.0,34.0,-100.00,NW,323,6.0,-999.0,19,0.00,,,-99.99,,2013-05-26 03:33:00,
2013-05-25 20:43:00,79.0,34.0,-100.00,NW,323,6.0,-999.0,19,0.00,,,-99.99,,2013-05-26 03:43:00,
2013-05-25 20:53:00,79.0,34.0,-100.00,NW,323,6.0,-999.0,19,0.00,,,-99.99,,2013-05-26 03:53:00,
2013-05-25 21:00:00,72.0,36.0,-100.00,NW,326,6.0,-999.0,27,0.00,,,-99.99,,2013-05-26 04:00:00,
2013-05-25 21:23:00,72.0,36.0,-100.00,NW,326,6.0,-999.0,27,0.00,,,-99.99,,2013-05-26 04:23:00,
2013-05-25 21:33:00,72.0,36.0,-100.00,NW,326,6.0,-999.0,27,0.00,,,-99.99,,2013-05-26 04:33:00,
2013-05-25 21:42:00,72.0,36.0,-100.00,NW,326,6.0,-999.0,27,0.00,,,-99.99,,2013-05-26 04:42:00,
2013-05-25 21:52:00,72.0,36.0,-100.00,NW,326,6.0,-999.0,27,0.00,,,-99.99,,2013-05-26 04:52:00,
2013-05-25 22:00:00,70.0,36.0,-100.00,North,350,4.0,-999.0,28,0.00,,,-99.99,,2013-05-26 05:00:00,
2013-05-25 22:22:00,70.0,36.0,-100.00,North,350,4.0,-999.0,28,0.00,,,-99.99,,2013-05-26 05:22:00,
2013-05-25 22:32:00,70.0,36.0,-100.00,North,350,4.0,-999.0,28,0.00,,,-99.99,,2013-05-26 05:32:00,
2013-05-25 22:42:00,70.0,36.0,-100.00,North,350,4.0,-999.0,28,0.00,,,-99.99,,2013-05-26 05:42:00,
2013-05-25 22:52:00,70.0,36.0,-100.00,North,350,4.0,-999.0,28,0.00,,,-99.99,,2013-05-26 05:52:00,
2013-05-25 23:00:00,69.0,36.0,-100.00,North,6,4.0,-999.0,30,0.00,,,-99.99,,2013-05-26 06:00:00,
2013-05-25 23:22:00,69.0,36.0,-100.00,North,6,4.0,-999.0,30,0.00,,,-99.99,,2013-05-26 06:22:00,
2013-05-25 23:32:00,69.0,36.0,-100.00,North,6,4.0,-999.0,30,0.00,,,-99.99,,2013-05-26 06:32:00,
2013-05-25 23:42:00,69.0,36.0,-100.00,North,6,4.0,-999.0,30,0.00,,,-99.99,,2013-05-26 06:42:00,
2013-05-25 23:52:00,69.0,36.0,-100.00,North,6,4.0,-999.0,30,0.00,,,-99.99,,2013-05-26 06:52:00,